Date,TemperatureHighF,TemperatureAvgF,TemperatureLowF,DewpointHighF,DewpointAvgF,DewpointLowF,HumidityHigh,HumidityAvg,HumidityLow,PressureMaxIn,PressureMinIn,WindSpeedMaxMPH,WindSpeedAvgMPH,GustSpeedMaxMPH,PrecipitationSumIn
2013-1-1,47.8,43.7,39.3,41.0,36.4,32.0,93,76,55,30.25,30.20,0,0,0,0.00
2013-1-2,50.9,44.9,39.1,38.0,35.0,32.0,87,69,50,30.22,30.13,0,0,0,0.00
2013-1-3,49.8,44.6,40.3,40.0,37.6,34.0,89,77,67,30.26,30.15,0,0,0,0.00
2013-1-4,51.3,46.0,41.3,40.0,37.3,36.0,86,72,59,30.27,30.17,0,0,0,0.00
2013-1-5,50.0,46.6,42.9,47.0,43.6,38.0,96,90,79,30.24,30.05,0,0,0,0.25
2013-1-6,48.1,44.5,42.2,46.0,42.3,41.0,96,92,80,30.18,30.02,0,0,0,0.12
2013-1-7,53.6,47.7,42.3,50.0,44.9,41.0,96,90,78,30.26,30.15,0,0,0,0.00
2013-1-8,55.3,49.8,45.8,48.0,44.9,43.0,91,84,72,30.23,30.12,0,0,0,0.00
2013-1-9,50.7,46.0,41.7,49.0,42.7,37.0,96,88,79,30.13,30.00,0,0,0,0.01
2013-1-10,46.8,42.6,39.5,37.0,35.1,33.0,83,75,61,30.19,30.07,0,0,0,0.00
2013-1-11,47.4,42.8,39.8,41.0,36.0,31.0,89,77,65,30.25,30.12,0,0,0,0.00
2013-1-12,47.0,41.4,37.7,37.0,32.1,25.0,88,71,45,30.23,30.14,0,0,0,0.00
2013-1-13,44.4,40.2,35.1,35.0,26.1,16.0,79,58,35,30.25,30.18,0,0,0,0.00
2013-1-14,45.5,41.2,35.0,34.0,22.0,15.0,77,48,32,30.39,30.22,0,0,0,0.00
2013-1-15,49.5,42.9,37.6,36.0,31.7,26.0,87,66,42,30.47,30.39,0,0,0,0.00
2013-1-16,51.2,44.6,38.0,37.0,34.6,32.0,88,69,56,30.42,30.24,0,0,0,0.00
2013-1-17,57.9,49.6,41.9,38.0,33.4,30.0,79,56,37,30.25,30.14,0,0,0,0.00
2013-1-18,58.9,51.9,46.0,39.0,34.2,28.0,71,53,35,30.20,30.13,0,0,0,0.00
2013-1-19,58.2,52.6,45.9,36.0,32.8,27.0,65,48,38,30.22,30.14,0,0,0,0.00
2013-1-20,58.9,52.6,46.9,36.0,32.6,29.0,64,48,33,30.20,30.12,0,0,0,0.00
2013-1-21,58.9,52.1,45.1,39.0,35.7,30.0,69,54,43,30.16,30.07,0,0,0,0.00
2013-1-22,57.8,52.4,45.8,41.0,38.4,31.0,76,60,39,30.10,29.99,0,0,0,0.00
2013-1-23,57.8,51.6,48.2,49.0,43.2,30.0,95,75,39,30.07,29.94,0,0,0,0.18
2013-1-24,56.3,51.6,48.3,51.0,48.8,47.0,95,90,80,30.18,30.05,0,0,0,0.00
2013-1-25,60.2,54.0,50.1,53.0,50.6,48.0,95,88,77,30.18,30.04,0,0,0,0.00
2013-1-26,52.7,48.2,44.8,48.0,44.6,41.0,96,87,74,30.08,30.00,0,0,0,0.00
2013-1-27,51.3,45.2,41.5,42.0,38.4,34.0,88,77,59,30.17,30.07,0,0,0,0.00
2013-1-28,52.3,46.4,42.8,44.0,40.3,36.0,92,79,65,30.29,30.16,0,0,0,0.00
2013-1-29,52.2,47.5,43.1,46.0,42.1,39.0,90,82,67,30.35,30.27,0,0,0,0.00
2013-1-30,61.6,52.2,46.2,48.0,43.4,40.0,92,72,48,30.34,30.25,0,0,0,0.00
2013-1-31,58.3,52.2,46.1,47.0,44.1,42.0,85,74,64,30.27,30.17,0,0,0,0.00